Scottsbluff, NE

4:00 AM MDT on August 18, 2017 (GMT -0600)
Heilig

Weather History for KBFF - September, 2013

Change the Weather History Date:

Thursday, September 19, 2013

  Actual Average Record
Temperature  
Mean Temperature 58 °F 60 °F  
Max Temperature 72 °F 76 °F 95 °F (1984)
Min Temperature 44 °F 44 °F 29 °F (1971)
Degree Days  
Heating Degree Days 7 6  
Month to date heating degree days 17 67  
Since 1 July heating degree days 19 87  
Cooling Degree Days 0 1  
Month to date cooling degree days 148 51  
Year to date cooling degree days 1040 716  
Growing Degree Days 8 (Base 50)    
Moisture  
Dew Point 39 °F    
Average Humidity 47    
Maximum Humidity 71    
Minimum Humidity 22    
Precipitation  
Precipitation T in 0.03 in 1.13 in (2000)
Month to date precipitation 1.02 0.74  
Year to date precipitation 8.87 13.04  
Snow  
Snow 0.00 in 0.10 in - ()
Month to date snowfall 0.0 0.2  
Since 1 July snowfall 0.0 0.2  
Snow Depth 0.00 in    
Sea Level Pressure  
Sea Level Pressure 29.99 in    
Wind  
Wind Speed 7 mph (NW)    
Max Wind Speed 18 mph    
Max Gust Speed 26 mph    
Visibility 10 miles    
Events Rain    
T = Trace of Precipitation, MM = Missing Value Source: NWS Daily Summary

Daily Weather History Graph

Daily Weather History Graph

Search for Another Location

Airport or City:

Trip Planner

Search our weather history database for the weather conditions in past years. The results will help you decide how hot, cold, wet, or windy it might be!

Date:

Astronomy

Sep. 19, 2013 Rise Set
Actual Time 6:39 AM MDT 6:56 PM MDT
Civil Twilight 6:11 AM MDT 7:24 PM MDT
Nautical Twilight 5:38 AM MDT 7:56 PM MDT
Astronomical Twilight 5:04 AM MDT 8:30 PM MDT
Moon 6:54 PM MDT (9/19) 6:51 AM MDT (9/19)
Length of Visible Light 13h 13m
Length of Day
12h 17m
Full, 100% of the Moon is Illuminated
Sep 19
Full
Sep 26
Last Quarter
Oct 4
New
Oct 11
First Quarter
Oct 18
Full

Hourly Weather History & Observations

Time (MDT) Temp. Dew Point Humidity Pressure Visibility Wind Dir Wind Speed Gust Speed Precip Events Conditions
12:53 AM 60.1 °F 48.0 °F 64% 29.75 in 10.0 mi NW 11.5 mph - N/A   Clear
1:53 AM 57.9 °F 46.0 °F 65% 29.79 in 10.0 mi WNW 10.4 mph - N/A   Clear
2:53 AM 55.9 °F 45.0 °F 67% 29.83 in 10.0 mi WNW 9.2 mph - N/A   Clear
3:53 AM 55.0 °F 42.1 °F 62% 29.86 in 10.0 mi WNW 9.2 mph - N/A   Clear
4:53 AM 54.0 °F 44.1 °F 69% 29.86 in 10.0 mi NNW 5.8 mph - 0.00 in Rain Light Rain
5:53 AM 54.0 °F 45.0 °F 72% 29.91 in 10.0 mi NW 8.1 mph - 0.00 in   Overcast
6:53 AM 54.0 °F 44.1 °F 69% 29.96 in 10.0 mi WNW 8.1 mph - 0.00 in   Mostly Cloudy
7:53 AM 53.1 °F 44.1 °F 71% 30.01 in 10.0 mi West 6.9 mph - 0.00 in Rain Light Rain
8:53 AM 54.0 °F 44.1 °F 69% 30.03 in 10.0 mi WNW 8.1 mph - 0.00 in   Scattered Clouds
9:53 AM 60.1 °F 42.1 °F 51% 30.03 in 10.0 mi NW 16.1 mph 20.7 mph N/A   Clear
10:53 AM 64.9 °F 37.0 °F 36% 30.02 in 10.0 mi North 11.5 mph 20.7 mph N/A   Clear
12:53 PM 68.0 °F 32.0 °F 26% 30.01 in 10.0 mi NNW 8.1 mph 23.0 mph N/A   Unknown
1:53 PM 70.0 °F 33.1 °F 26% 30.01 in 10.0 mi NW 6.9 mph 16.1 mph N/A   Clear
2:53 PM 70.0 °F 32.0 °F 25% 30.01 in 10.0 mi WNW 10.4 mph 19.6 mph N/A   Partly Cloudy
3:53 PM 72.0 °F 30.9 °F 22% 29.99 in 10.0 mi WNW 12.7 mph 18.4 mph N/A   Clear
4:53 PM 71.1 °F 30.0 °F 22% 29.99 in 10.0 mi Variable 5.8 mph - N/A   Clear
5:53 PM 69.1 °F 32.0 °F 25% 30.00 in 10.0 mi North 11.5 mph - N/A   Clear
6:53 PM 62.1 °F 34.0 °F 35% 30.03 in 10.0 mi NNE 6.9 mph - N/A   Clear
7:53 PM 55.0 °F 37.0 °F 51% 30.08 in 10.0 mi NNE 6.9 mph - N/A   Clear
8:53 PM 53.1 °F 37.0 °F 55% 30.12 in 10.0 mi NNE 6.9 mph - N/A   Clear
9:53 PM 50.0 °F 37.0 °F 61% 30.14 in 10.0 mi Calm Calm - N/A   Clear
10:53 PM 48.0 °F 37.9 °F 68% 30.14 in 10.0 mi Calm Calm - N/A   Clear
11:53 PM 48.0 °F 37.0 °F 66% 30.14 in 10.0 mi Calm Calm - N/A   Clear